Regional Weather Roundup
Issued by NWS

Home | Current Version | Previous Version | Graphics & Text | Print | Product List | Glossary On
Versions: 1 2 3 4 5 6 7 8 9 10 11 12 13 14 15 16 17 18 19 20 21 22 23 24 25 26 27 28 29 30 31 32 33 34 35 36 37 38 39 40 41 42 43 44 45 46 47 48 49 50
000
ASUS43 KLMK 231502
RWRKY
KENTUCKY REGIONAL WEATHER ROUNDUP
NATIONAL WEATHER SERVICE LOUISVILLE KY
1100 AM EDT SUN APR 23 2017

NOTE "FAIR" INDICATES FEW OR NO CLOUDS BELOW 12,000 FEET
WITH NO SIGNIFICANT WEATHER AND/OR OBSTRUCTIONS TO VISIBILITY.

KYZ001>023-026-027-061>063-070>075-231600-
WESTERN AND SOUTH CENTRAL KENTUCKY

CITY           SKY/WX    TMP DP  RH WIND       PRES   REMARKS
PADUCAH        CLOUDY    56  42  59 N17G28    29.96S
HENDERSON      CLOUDY    55  40  56 NE16G23   30.00R
OWENSBORO      CLOUDY    52  40  63 NE17G24   29.96S
HOPKINSVILLE   DRIZZLE   47  46  94 N10       29.90R
BOWLING GREEN  LGT RAIN  49  47  93 N10       29.90S
GLASGOW        NOT AVBL
$$

KYZ024-025-028>034-038-045-046-053-231600-
NORTH CENTRAL KENTUCKY

CITY           SKY/WX    TMP DP  RH WIND       PRES   REMARKS
LOUISVILLE/SDF PTSUNNY   57  41  55 E18G24    29.98S
LOUISVILLE/LOU CLOUDY    56  39  53 NE16G26   29.98F
FORT KNOX      CLOUDY    53  41  63 N13G22    29.94S
$$

KYZ035>037-039>044-047>052-055>060-089>105-231600-
NORTHEAST KENTUCKY

CITY           SKY/WX    TMP DP  RH WIND       PRES   REMARKS
LEXINGTON      CLOUDY    49  40  71 NE15      29.96S
COVINGTON      PTSUNNY   54  37  52 NE18      30.04R
FRANKFORT      CLOUDY    51  38  60 NE12      29.97S
$$

KYZ054-064>069-076>088-106>120-231600-
SOUTHEAST KENTUCKY

CITY           SKY/WX    TMP DP  RH WIND       PRES   REMARKS
JACKSON        LGT RAIN  47  46  97 VRB3      29.94S FOG
LONDON         LGT RAIN  49  46  90 NE8       29.90R
SOMERSET       LGT RAIN  46  46 100 E12G17    29.87F
MIDDLESBORO    LGT RAIN  53  53 100 CALM      29.88F
MONTICELLO     LGT RAIN  51  49  92 N6        29.88F
$$




USA.gov is the U.S. government's official web portal to all federal, state and local government web resources and services.